User: anonymous   Login
Location: Unspecified
(0.0000°N, 0.0000°E)
Time: 11:04:13
(UTC+00:00)
Language:

MUOS 5 - Orbit

View from above orbital plane
View from above orbital plane
View from above satellite
View from above satellite

Ground track
Ground track

The orbit data is extracted from the following two-line orbital elements,

1 41622U 16041A   17280.12638425 0.00000000  00000-0  00000-0 0    09
2 41622   9.1216 317.0983 0211864 194.0617 165.3161  1.00270000    00
Epoch (UTC): 07 October 2017 03:01:59
Eccentricity: 0.0211864
inclination: 9.1216°
perigee height: 34893 km
apogee height: 36680 km
right ascension of ascending node: 317.0983°
argument of perigee: 194.0617°
revolutions per day: 1.00270000
mean anomaly at epoch: 165.3161°
orbit number at epoch: 0

The dashed part of the orbit path shows where the satellite is in the earth's shadow,  

DLR